Location: Ashtead
(51.3000°N, 0.3000°W)
Time: 05:26:40
(UTC+00:00)

Thor Agena Rocket - Pass Details

Date: 26 September 2023
Orbit: 757 x 806 km, 99.0° (Epoch: 29 November)

Event Time Altitude Azimuth Distance (km) Brightness Sun altitude
Rises 02:30:12 0° 19° (NNE) 3,309 7.7 -29.9°
Reaches altitude 10° 02:32:37 10° 25° (NNE) 2,381 6.8 -29.6°
Maximum altitude 02:37:42 48° 100° (E) 1,049 4.3 -29.0°
Enters shadow 02:38:25 45° 124° (SE) 1,091 4.3 -28.9°
